This is the latest recevied weather packets stored in our database for station/object KC3WWU. If no packets are shown the sender has not sent any weather packets the latest 10 day(s).
| Time | Temp. | Humidity | Pressure | Rain* | Wind** | Luminosity | Snow |
|---|---|---|---|---|---|---|---|
| 1777222972 | 7.78° C | 91% | 1018.1 hPa | 0 mm | - | 216 W/m² | - |
| 1777222668 | 7.22° C | 91% | 1018.1 hPa | 0 mm | - | 216 W/m² | - |
| 1777222366 | 7.22° C | 90% | 1018.1 hPa | 0 mm | - | 218 W/m² | - |
| 1777222064 | 6.67° C | 92% | 1018.2 hPa | 0 mm | - | 237 W/m² | - |
| 1777221760 | 7.22° C | 91% | 1018.1 hPa | 0 mm | - | 218 W/m² | - |
| 1777221456 | 6.67° C | 92% | 1018.3 hPa | 0 mm | - | 188 W/m² | - |
| 1777221154 | 6.67° C | 90% | 1018.3 hPa | 0 mm | - | 176 W/m² | - |
| 1777220850 | 7.22° C | 93% | 1018.4 hPa | 0 mm | - | 201 W/m² | - |
| 1777220545 | 6.67° C | 93% | 1018.4 hPa | 0 mm | - | 231 W/m² | - |
| 1777220241 | 6.67° C | 93% | 1018.2 hPa | 0 mm | - | 187 W/m² | - |
| 1777219937 | 6.11° C | 95% | 1018.3 hPa | 0 mm | - | 175 W/m² | - |
| 1777219634 | 6.11° C | 95% | 1018.1 hPa | 0 mm | - | 159 W/m² | - |
| 1777219331 | 6.11° C | 95% | 1018.1 hPa | 0 mm | - | 156 W/m² | - |
| 1777219027 | 6.11° C | 96% | 1018.3 hPa | 0 mm | - | 150 W/m² | - |
| 1777218722 | 6.11° C | 95% | 1018.3 hPa | 0 mm | - | 164 W/m² | - |
| 1777218418 | 6.11° C | 96% | 1018.3 hPa | 0 mm | - | 152 W/m² | - |
| 1777218114 | 5.56° C | 96% | 1018.2 hPa | 0 mm | - | 149 W/m² | - |
| 1777217810 | 5.56° C | 97% | 1018.1 hPa | 0 mm | - | 141 W/m² | - |
| 1777217506 | 5.56° C | 97% | 1018.1 hPa | 0 mm | - | 122 W/m² | - |
| 1777217202 | 5.56° C | 97% | 1018.3 hPa | 0 mm | - | 108 W/m² | - |
| 1777216899 | 5.56° C | 97% | 1018.3 hPa | 0 mm | - | 107 W/m² | - |
| 1777216596 | 5.56° C | 97% | 1018.3 hPa | 0 mm | - | 112 W/m² | - |
| 1777216291 | 5.56° C | 97% | 1018.2 hPa | 0 mm | - | 120 W/m² | - |
| 1777215990 | 5.56° C | 96% | 1018.1 hPa | 0 mm | - | 116 W/m² | - |
| 1777215686 | 5.56° C | 96% | 1018.1 hPa | 0 mm | - | 111 W/m² | - |
* Rain latest hour (hover to see other rain measurements)
** Current wind speed in m/s (hover to see current wind gust speed)